Regional Weather Roundup
Issued by NWS

Home | Current Version | Previous Version | Text Only | Print | Product List | Glossary Off
Versions: 1 2 3 4 5 6 7 8 9 10 11 12 13 14 15 16 17 18 19 20 21 22 23 24 25 26 27 28 29 30 31 32 33 34 35 36 37 38 39 40 41 42 43 44 45 46 47 48 49 50

000
ASUS45 KSLC 262310
RWRUT

UTAH REGIONAL WEATHER ROUNDUP
NATIONAL WEATHER SERVICE SALT LAKE CITY UT
400 PM MST THU FEB 26 2015

UTZ001>011-023>025-270000-

NORTHERN UTAH

CITY           SKY/WX    TMP DP  RH WIND       PRES   REMARKS
BRIGHAM CITY   CLOUDY    40  31  70 W8        29.92S WCI  34
HILL AFB       CLOUDY    38  29  70 NW6       29.90S WCI  33
LOGAN          MOSUNNY   39  27  62 CALM      29.90F
OGDEN          CLOUDY    39  29  67 NW7       29.90S WCI  34
PROVO AIRPORT  PTSUNNY   37  28  70 W5        29.90F WCI  34
SALT LAKE CITY PTSUNNY   38  33  82 W9        29.91S WCI  31
VERNAL         CLOUDY    38  16  40 CALM      29.85F
WENDOVER       CLOUDY    45  25  45 N6        29.93F
HEBER CITY     PTSUNNY   36  27  69 CALM      29.84F
WEST JORDAN    CLOUDY    36  34  93 NW13      29.92S WCI  27

$$

UTZ012>022-026-027-270000-

SOUTHERN/CENTRAL UTAH

CITY           SKY/WX    TMP DP  RH WIND       PRES   REMARKS
BLANDING       CLOUDY    32  27  80 N5        29.95F WCI  27
BRYCE CANYON   PTSUNNY   34  19  54 NW17G29   29.85S WCI  23
CEDAR CITY     MOSUNNY   46  20  35 NE7       29.84F
DELTA          CLOUDY    42  24  47 NW15      29.90S
HANKSVILLE     CLOUDY    43  28  56 CALM      29.89F
MILFORD        PTSUNNY   48  24  39 N21G26    29.86F
MOAB/CYNLANDS  CLOUDY    41  23  48 S12       29.85F
PRICE          CLOUDY    39  18  42 SE8       29.83F WCI  33
ST GEORGE      MOCLDY    63  25  23 CALM      29.80F
KANAB          MOSUNNY   52  25  35 W10G18    29.85F

$$

REGIONAL REPORTS     COLORADO/ARIZONA

CITY           SKY/WX    TMP DP  RH WIND       PRES   REMARKS
CRAIG, CO      LGT SNOW  29  22  75 CALM      29.87F
GRAND JUNCTION CLOUDY    42  15  33 CALM      29.85F
RIFLE          CLOUDY    41  12  30 SW13G21   29.84F
MONTROSE       CLOUDY    32  20  61 CALM      29.88F
CORTEZ         CLOUDY    39  23  52 SW8       29.87F WCI  33
PAGE, AZ       CLOUDY    52  28  39 N13       29.79F
GRAND CANYON   CLOUDY    47  20  34 W13G23    29.85F
KINGMAN        PTSUNNY   65  22  19 N10       29.82F
FLAGSTAFF      CLOUDY    38  26  62 W12       29.90R WCI  30

$$

REGIONAL REPORTS    NEVADA/IDAHO/WYOMING

CITY           SKY/WX    TMP DP  RH WIND       PRES   REMARKS
LAS VEGAS, NV  MOSUNNY   69  20  15 S9        29.74F
ELY            CLOUDY    40  17  39 NW17G24   29.92S WCI  31
ELKO           CLOUDY    43  22  43 W18       29.95F
POCATELLO, ID  PTSUNNY   42  11  28 NE8       29.93F
BURLEY         SUNNY     43  19  38 W8        29.93F
EVANSTON, WY   FLURRIES  25  22  88 E9        29.85R WCI  15
ROCK SPRINGS   CLOUDY    20  13  74 NE18      29.90S WCI   5
KEMMERER       CLOUDY    27  19  74 E7        29.87S WCI  19

$$



USA.gov is the U.S. government's official web portal to all federal, state and local government web resources and services.